When you browse on this site, cookies collect data to enhance your experience and personalize the content and advertising you see.
Visit our Privacy Policy to learn more. By continuing to use the site, you agree to this use of cookies and data.

Hourly Weather Novonikolskoe

Today, 11 July, Saturday

Time Temperature Precipitation Wind Pressure Humidity
00:00 +15°C° 0 mm 2 mps 747 mmHg 78%
01:00 +15°C° 0 mm 2 mps 747 mmHg 79%
02:00 +14°C° 0 mm 2 mps 747 mmHg 79%
03:00 +14°C° 0 mm 2 mps 747 mmHg 77%
04:00 +14°C° 0 mm 2 mps 748 mmHg 78%
05:00 +14°C° 0 mm 2 mps 748 mmHg 80%
06:00 +14°C° 0 mm 3 mps 748 mmHg 82%
07:00 +17°C° 0 mm 3 mps 748 mmHg 79%
08:00 +18°C° 0 mm 4 mps 748 mmHg 76%
09:00 +20°C° 0 mm 4 mps 748 mmHg 73%
10:00 +21°C° 0 mm 4 mps 748 mmHg 71%
11:00 +22°C° 0 mm 5 mps 748 mmHg 68%
12:00 +23°C° 0 mm 5 mps 748 mmHg 66%
13:00 +23°C° 0 mm 5 mps 748 mmHg 66%
14:00 +25°C° 0 mm 5 mps 747 mmHg 67%
15:00 +25°C° 0 mm 5 mps 747 mmHg 67%
16:00 +25°C° 0 mm 4 mps 747 mmHg 70%
17:00 +25°C° 0 mm 4 mps 747 mmHg 73%
18:00 +25°C° 0 mm 4 mps 746 mmHg 76%
19:00 +22°C° 0 mm 3 mps 746 mmHg 80%
20:00 +21°C° 0 mm 3 mps 746 mmHg 85%
21:00 +19°C° 0 mm 3 mps 746 mmHg 89%
22:00 +19°C° 0 mm 3 mps 746 mmHg 89%
23:00 +18°C° 0 mm 3 mps 746 mmHg 90%

Tomorrow, 12 July, Sunday

Time Temperature Precipitation Wind Pressure Humidity
00:00 +17°C° 0 mm 3 mps 746 mmHg 90%
01:00 +17°C° 0 mm 3 mps 746 mmHg 90%
02:00 +17°C° 0 mm 3 mps 746 mmHg 89%
03:00 +16°C° 0 mm 3 mps 745 mmHg 89%
04:00 +17°C° 0 mm 3 mps 745 mmHg 88%
05:00 +17°C° 0 mm 2 mps 745 mmHg 87%
06:00 +17°C° 0 mm 2 mps 745 mmHg 87%
07:00 +19°C° 0 mm 2 mps 745 mmHg 82%
08:00 +20°C° 0 mm 2 mps 745 mmHg 77%
09:00 +23°C° 0 mm 2 mps 745 mmHg 73%
10:00 +24°C° 0 mm 3 mps 745 mmHg 70%
11:00 +25°C° 0 mm 3 mps 745 mmHg 67%
12:00 +26°C° 0 mm 3 mps 744 mmHg 65%
13:00 +26°C° 0 mm 3 mps 744 mmHg 64%
14:00 +26°C° 0 mm 3 mps 744 mmHg 64%
15:00 +26°C° 0 mm 3 mps 743 mmHg 64%
16:00 +26°C° 0 mm 3 mps 743 mmHg 66%
17:00 +26°C° 0 mm 2 mps 743 mmHg 68%
18:00 +26°C° 0 mm 2 mps 742 mmHg 70%
19:00 +24°C° 0 mm 2 mps 742 mmHg 74%
20:00 +21°C° 0 mm 2 mps 742 mmHg 77%
21:00 +21°C° 0 mm 1 mps 742 mmHg 81%
22:00 +20°C° 0 mm 1 mps 742 mmHg 83%
23:00 +19°C° 0 mm 2 mps 741 mmHg 84%

Day after tomorrow, 13 July, Monday

Time Temperature Precipitation Wind Pressure Humidity
00:00 +18°C° 0 mm 2 mps 741 mmHg 86%
01:00 +17°C° 0 mm 2 mps 741 mmHg 86%
02:00 +18°C° 0 mm 1 mps 741 mmHg 87%
03:00 +18°C° 0 mm 1 mps 740 mmHg 87%
04:00 +18°C° 0 mm 1 mps 740 mmHg 87%
05:00 +18°C° 0 mm 1 mps 740 mmHg 87%
06:00 +19°C° 0 mm 1 mps 739 mmHg 87%
07:00 +20°C° 0 mm 1 mps 739 mmHg 82%
08:00 +22°C° 0 mm 1 mps 739 mmHg 77%
09:00 +24°C° 0 mm 1 mps 739 mmHg 73%
10:00 +24°C° 0.1 mm 2 mps 739 mmHg 72%
11:00 +25°C° 0.1 mm 2 mps 739 mmHg 71%
12:00 +25°C° 0.1 mm 2 mps 739 mmHg 70%
13:00 +25°C° 0.9 mm 2 mps 738 mmHg 71%
14:00 +25°C° 0.9 mm 2 mps 738 mmHg 73%
15:00 +25°C° 0.9 mm 2 mps 738 mmHg 74%
16:00 +24°C° 1.3 mm 1 mps 738 mmHg 78%
17:00 +23°C° 1.3 mm 1 mps 737 mmHg 83%
18:00 +22°C° 1.3 mm 1 mps 737 mmHg 87%
19:00 +21°C° 0.4 mm 2 mps 737 mmHg 89%
20:00 +20°C° 0.4 mm 2 mps 738 mmHg 92%
21:00 +19°C° 0.4 mm 3 mps 738 mmHg 94%
22:00 +19°C° 0.6 mm 3 mps 738 mmHg 95%
23:00 +18°C° 0.6 mm 3 mps 737 mmHg 96%

14 July, Tuesday

Time Temperature Precipitation Wind Pressure Humidity
00:00 +18°C° 0.6 mm 3 mps 737 mmHg 97%
01:00 +18°C° 0.4 mm 3 mps 737 mmHg 97%
02:00 +18°C° 0.4 mm 4 mps 737 mmHg 97%
03:00 +17°C° 0.4 mm 4 mps 737 mmHg 97%
04:00 +17°C° 0 mm 4 mps 737 mmHg 96%
05:00 +17°C° 0 mm 4 mps 737 mmHg 96%
06:00 +17°C° 0 mm 4 mps 737 mmHg 95%
07:00 +17°C° 0.1 mm 4 mps 737 mmHg 95%
08:00 +16°C° 0.1 mm 5 mps 738 mmHg 94%
09:00 +16°C° 0.1 mm 5 mps 738 mmHg 94%
10:00 +16°C° 0.4 mm 5 mps 738 mmHg 94%
11:00 +17°C° 0.4 mm 4 mps 738 mmHg 93%
12:00 +18°C° 0.4 mm 4 mps 738 mmHg 93%
13:00 +18°C° 0.3 mm 4 mps 738 mmHg 92%
14:00 +18°C° 0.3 mm 4 mps 738 mmHg 91%
15:00 +19°C° 0.3 mm 5 mps 738 mmHg 90%
16:00 +17°C° 0.3 mm 5 mps 738 mmHg 91%
17:00 +17°C° 0.3 mm 5 mps 737 mmHg 91%
18:00 +17°C° 0.3 mm 5 mps 737 mmHg 91%
19:00 +17°C° 0.6 mm 5 mps 737 mmHg 92%
20:00 +17°C° 0.6 mm 5 mps 737 mmHg 93%
21:00 +16°C° 0.6 mm 6 mps 737 mmHg 93%
22:00 +16°C° 0.4 mm 6 mps 737 mmHg 93%
23:00 +16°C° 0.4 mm 7 mps 736 mmHg 93%

15 July, Wednesday

Time Temperature Precipitation Wind Pressure Humidity
00:00 +15°C° 0.4 mm 7 mps 736 mmHg 92%
01:00 +15°C° 0.4 mm 7 mps 736 mmHg 92%
02:00 +15°C° 0.4 mm 7 mps 735 mmHg 93%
03:00 +15°C° 0.4 mm 7 mps 735 mmHg 93%
04:00 +14°C° 1.1 mm 7 mps 735 mmHg 94%
05:00 +13°C° 1.1 mm 8 mps 735 mmHg 94%
06:00 +13°C° 1.1 mm 8 mps 735 mmHg 95%
07:00 +13°C° 1.3 mm 8 mps 735 mmHg 95%
08:00 +13°C° 1.3 mm 8 mps 734 mmHg 96%
09:00 +13°C° 1.3 mm 8 mps 734 mmHg 96%
10:00 +13°C° 3.1 mm 8 mps 734 mmHg 96%
11:00 +13°C° 3.1 mm 8 mps 734 mmHg 96%
12:00 +13°C° 3.1 mm 8 mps 734 mmHg 95%
13:00 +13°C° 1 mm 8 mps 734 mmHg 95%
14:00 +14°C° 1 mm 7 mps 734 mmHg 94%
15:00 +14°C° 1 mm 7 mps 735 mmHg 94%
16:00 +14°C° 0.2 mm 7 mps 735 mmHg 94%
17:00 +14°C° 0.2 mm 7 mps 735 mmHg 94%
18:00 +12°C° 0.2 mm 7 mps 735 mmHg 94%
19:00 +12°C° 0.1 mm 7 mps 735 mmHg 94%
20:00 +12°C° 0.1 mm 7 mps 735 mmHg 94%
21:00 +13°C° 0.1 mm 6 mps 735 mmHg 95%
22:00 +13°C° 0.1 mm 6 mps 735 mmHg 95%
23:00 +13°C° 0.1 mm 6 mps 734 mmHg 95%

16 July, Thursday

Time Temperature Precipitation Wind Pressure Humidity
00:00 +13°C° 0.1 mm 5 mps 734 mmHg 95%
01:00 +13°C° 0.1 mm 6 mps 734 mmHg 95%
02:00 +13°C° 0.1 mm 6 mps 734 mmHg 95%
03:00 +13°C° 0.1 mm 6 mps 734 mmHg 95%
04:00 +13°C° 0.4 mm 6 mps 734 mmHg 96%
05:00 +13°C° 0.4 mm 6 mps 734 mmHg 96%
06:00 +13°C° 0.4 mm 6 mps 733 mmHg 96%
07:00 +13°C° 0.3 mm 6 mps 733 mmHg 96%
08:00 +13°C° 0.3 mm 6 mps 734 mmHg 96%
09:00 +13°C° 0.3 mm 6 mps 734 mmHg 95%
10:00 +13°C° 0 mm 6 mps 734 mmHg 95%
11:00 +12°C° 0 mm 7 mps 734 mmHg 94%
12:00 +14°C° 0 mm 7 mps 734 mmHg 93%
13:00 +14°C° 0 mm 7 mps 734 mmHg 92%
14:00 +14°C° 0 mm 6 mps 735 mmHg 92%
15:00 +14°C° 0 mm 6 mps 735 mmHg 91%
16:00 +14°C° 0 mm 6 mps 735 mmHg 90%
17:00 +14°C° 0 mm 5 mps 735 mmHg 88%
18:00 +14°C° 0 mm 4 mps 735 mmHg 87%
19:00 +13°C° 0 mm 4 mps 735 mmHg 89%
20:00 +13°C° 0 mm 3 mps 736 mmHg 91%
21:00 +13°C° 0 mm 3 mps 736 mmHg 92%
22:00 +12°C° 0 mm 3 mps 736 mmHg 92%
23:00 +12°C° 0 mm 3 mps 736 mmHg 92%
Show more